| time (UTC) | temp F | wind direction | speed MPH | gust MPH | rain 1hr in | rain 24hr in | rain mn in | humidity % | barometer mb |
| 20260507223738 | 68 | 292 | 3.0 | 6.0 | 0.00 | 0.06 | 0.00 | 84 | 1009.7 |
| 20260507223235 | 67 | 272 | 2.0 | 5.0 | 0.00 | 0.06 | 0.00 | 84 | 1009.5 |
| 20260507222716 | 67 | 273 | 2.0 | 3.0 | 0.00 | 0.06 | 0.00 | 84 | 1009.6 |
| 20260507222214 | 67 | 276 | 2.0 | 3.0 | 0.00 | 0.06 | 0.00 | 85 | 1009.6 |
| 20260507221655 | 67 | 289 | 2.0 | 3.0 | 0.00 | 0.06 | 0.00 | 85 | 1009.6 |
| 20260507221150 | 67 | 259 | 2.0 | 5.0 | 0.00 | 0.06 | 0.00 | 85 | 1009.4 |
| 20260507220648 | 68 | 275 | 3.0 | 5.0 | 0.00 | 0.06 | 0.00 | 86 | 1009.5 |
| 20260507220144 | 68 | 309 | 3.0 | 6.0 | 0.00 | 0.06 | 0.00 | 86 | 1009.5 |
| 20260507215642 | 68 | 333 | 3.0 | 6.0 | 0.00 | 0.06 | 0.06 | 85 | 1009.5 |
| 20260507215138 | 68 | 302 | 4.0 | 8.0 | 0.00 | 0.06 | 0.06 | 85 | 1009.4 |
| 20260507214646 | 68 | 315 | 5.0 | 8.0 | 0.00 | 0.06 | 0.06 | 85 | 1009.5 |
| 20260507214150 | 68 | 314 | 5.0 | 8.0 | 0.00 | 0.06 | 0.06 | 85 | 1009.5 |
| 20260507213644 | 68 | 292 | 5.0 | 8.0 | 0.00 | 0.06 | 0.06 | 84 | 1009.5 |
| 20260507213137 | 68 | 299 | 6.0 | 8.0 | 0.00 | 0.06 | 0.06 | 85 | 1009.6 |
| 20260507212644 | 68 | 305 | 6.0 | 9.0 | 0.00 | 0.06 | 0.06 | 84 | 1009.7 |
| 20260507212129 | 68 | 309 | 5.0 | 9.0 | 0.00 | 0.06 | 0.06 | 84 | 1009.6 |
| 20260507211011 | 68 | 282 | 6.0 | 12.0 | 0.00 | 0.06 | 0.06 | 84 | 1009.9 |
| 20260507210454 | 68 | 292 | 8.0 | 12.0 | 0.00 | 0.06 | 0.06 | 84 | 1009.8 |
| 20260507205951 | 68 | 292 | 8.0 | 12.0 | 0.00 | 0.06 | 0.06 | 84 | 1009.7 |
| 20260507205440 | 68 | 298 | 8.0 | 12.0 | 0.00 | 0.06 | 0.06 | 83 | 1009.7 |
| 20260507204921 | 68 | 288 | 8.0 | 15.0 | 0.00 | 0.06 | 0.06 | 83 | 1009.7 |
| 20260507204428 | 68 | 321 | 8.0 | 15.0 | 0.00 | 0.06 | 0.06 | 83 | 1009.8 |
| 20260507203929 | 68 | 274 | 9.0 | 16.0 | 0.00 | 0.06 | 0.06 | 83 | 1009.7 |
| 20260507203411 | 68 | 321 | 9.0 | 16.0 | 0.00 | 0.06 | 0.06 | 83 | 1009.9 |
| 20260507202911 | 68 | 300 | 10.0 | 16.0 | 0.00 | 0.06 | 0.06 | 83 | 1010.0 |
| 20260507202400 | 68 | 295 | 11.0 | 16.0 | 0.00 | 0.06 | 0.06 | 83 | 1010.0 |
| 20260507201908 | 67 | 309 | 10.0 | 15.0 | 0.00 | 0.06 | 0.06 | 83 | 1010.0 |
| 20260507201400 | 67 | 313 | 10.0 | 15.0 | 0.00 | 0.06 | 0.06 | 82 | 1010.0 |
| 20260507200907 | 67 | 298 | 10.0 | 15.0 | 0.00 | 0.06 | 0.06 | 82 | 1009.9 |
| 20260507200403 | 67 | 297 | 11.0 | 15.0 | 0.00 | 0.06 | 0.06 | 82 | 1010.1 |
| 20260507195909 | 67 | 309 | 11.0 | 14.0 | 0.00 | 0.06 | 0.06 | 82 | 1010.2 |
| 20260507195407 | 68 | 306 | 11.0 | 14.0 | 0.00 | 0.06 | 0.06 | 81 | 1010.2 |
| 20260507194909 | 68 | 303 | 11.0 | 17.0 | 0.00 | 0.06 | 0.06 | 81 | 1010.3 |
| 20260507194413 | 68 | 313 | 11.0 | 17.0 | 0.00 | 0.06 | 0.06 | 80 | 1010.3 |
| 20260507193857 | 68 | 308 | 12.0 | 17.0 | 0.00 | 0.06 | 0.06 | 80 | 1010.2 |
| 20260507192734 | 68 | 275 | 12.0 | 17.0 | 0.00 | 0.06 | 0.06 | 78 | 1010.0 |
| 20260507192229 | 68 | 296 | 13.0 | 17.0 | 0.00 | 0.06 | 0.06 | 76 | 1009.8 |
| 20260507191729 | 68 | 301 | 12.0 | 17.0 | 0.00 | 0.06 | 0.06 | 76 | 1009.9 |
| 20260507191232 | 68 | 310 | 12.0 | 16.0 | 0.00 | 0.06 | 0.06 | 76 | 1009.9 |
| 20260507190105 | 68 | 306 | 13.0 | 18.0 | 0.00 | 0.06 | 0.06 | 75 | 1010.0 |
| 20260507185546 | 68 | 297 | 13.0 | 18.0 | 0.00 | 0.06 | 0.06 | 75 | 1010.1 |
| 20260507185027 | 68 | 294 | 13.0 | 18.0 | 0.00 | 0.06 | 0.06 | 75 | 1009.8 |
| 20260507184514 | 68 | 290 | 14.0 | 18.0 | 0.00 | 0.06 | 0.06 | 75 | 1009.8 |
| 20260507184019 | 68 | 271 | 14.0 | 18.0 | 0.00 | 0.06 | 0.06 | 76 | 1009.8 |
| 20260507183518 | 68 | 305 | 14.0 | 20.0 | 0.00 | 0.06 | 0.06 | 76 | 1009.7 |
| 20260507182400 | 68 | 290 | 13.0 | 20.0 | 0.00 | 0.06 | 0.06 | 74 | 1009.7 |
| 20260507181847 | 68 | 301 | 14.0 | 20.0 | 0.00 | 0.06 | 0.06 | 75 | 1009.6 |
| 20260507181345 | 68 | 295 | 13.0 | 18.0 | 0.00 | 0.06 | 0.06 | 77 | 1009.6 |
| 20260507180839 | 68 | 302 | 13.0 | 18.0 | 0.00 | 0.06 | 0.06 | 76 | 1009.5 |
| 20260507180323 | 68 | 290 | 13.0 | 18.0 | 0.00 | 0.06 | 0.06 | 78 | 1009.7 |
| 20260507175804 | 67 | 313 | 13.0 | 18.0 | 0.00 | 0.06 | 0.06 | 78 | 1009.8 |
| 20260507175311 | 67 | 294 | 12.0 | 17.0 | 0.00 | 0.06 | 0.06 | 80 | 1009.8 |
| 20260507174811 | 67 | 253 | 12.0 | 16.0 | 0.00 | 0.06 | 0.06 | 83 | 1009.8 |
| 20260507174309 | 66 | 307 | 12.0 | 16.0 | 0.00 | 0.06 | 0.06 | 86 | 1009.9 |
| 20260507173123 | 67 | 323 | 12.0 | 16.0 | 0.00 | 0.06 | 0.06 | 87 | 1010.0 |
| 20260507172633 | 66 | 298 | 13.0 | 16.0 | 0.00 | 0.06 | 0.06 | 87 | 1010.1 |
| 20260507172115 | 67 | 306 | 12.0 | 16.0 | 0.00 | 0.06 | 0.06 | 87 | 1010.1 |
| 20260507171607 | 66 | 315 | 11.0 | 14.0 | 0.00 | 0.06 | 0.06 | 87 | 1010.1 |
| 20260507171108 | 67 | 300 | 10.0 | 14.0 | 0.00 | 0.06 | 0.06 | 87 | 1010.2 |
| 20260507165946 | 66 | 305 | 9.0 | 13.0 | 0.00 | 0.06 | 0.06 | 88 | 1010.4 |
| 20260507165451 | 66 | 294 | 9.0 | 14.0 | 0.00 | 0.06 | 0.06 | 89 | 1010.4 |
| 20260507164954 | 66 | 299 | 10.0 | 14.0 | 0.00 | 0.06 | 0.06 | 89 | 1010.3 |
| 20260507164450 | 66 | 309 | 10.0 | 14.0 | 0.00 | 0.06 | 0.06 | 89 | 1010.3 |
| 20260507163958 | 66 | 307 | 10.0 | 14.0 | 0.00 | 0.06 | 0.06 | 89 | 1010.3 |
| 20260507163449 | 67 | 302 | 10.0 | 13.0 | 0.00 | 0.06 | 0.06 | 88 | 1010.3 |
| 20260507162943 | 66 | 309 | 10.0 | 14.0 | 0.00 | 0.06 | 0.06 | 88 | 1010.3 |
| 20260507161829 | 66 | 309 | 12.0 | 14.0 | 0.00 | 0.06 | 0.06 | 88 | 1010.4 |
| 20260507161335 | 66 | 312 | 11.0 | 14.0 | 0.00 | 0.06 | 0.06 | 88 | 1010.4 |
| 20260507160830 | 67 | 317 | 10.0 | 13.0 | 0.00 | 0.06 | 0.06 | 88 | 1010.4 |
| 20260507155720 | 67 | 310 | 10.0 | 14.0 | 0.00 | 0.06 | 0.06 | 88 | 1010.4 |
| 20260507155215 | 67 | 316 | 10.0 | 14.0 | 0.00 | 0.06 | 0.06 | 88 | 1010.5 |
| 20260507154659 | 67 | 306 | 9.0 | 13.0 | 0.00 | 0.06 | 0.06 | 87 | 1010.5 |
| 20260507154157 | 67 | 295 | 9.0 | 12.0 | 0.00 | 0.06 | 0.06 | 88 | 1010.5 |
| 20260507153638 | 67 | 289 | 9.0 | 12.0 | 0.00 | 0.06 | 0.06 | 87 | 1010.6 |
| 20260507152509 | 67 | 315 | 7.0 | 10.0 | 0.00 | 0.06 | 0.06 | 87 | 1010.6 |
| 20260507151340 | 67 | 304 | 8.0 | 12.0 | 0.00 | 0.06 | 0.06 | 86 | 1010.7 |
| 20260507150831 | 67 | 305 | 9.0 | 13.0 | 0.00 | 0.06 | 0.06 | 86 | 1010.6 |
| 20260507150340 | 67 | 298 | 9.0 | 13.0 | 0.00 | 0.06 | 0.06 | 86 | 1010.8 |
| 20260507145834 | 67 | 295 | 9.0 | 13.0 | 0.00 | 0.06 | 0.06 | 86 | 1010.8 |
| 20260507144719 | 67 | 308 | 9.0 | 12.0 | 0.00 | 0.06 | 0.06 | 86 | 1010.9 |
| 20260507144218 | 67 | 313 | 8.0 | 11.0 | 0.00 | 0.06 | 0.06 | 86 | 1010.9 |
| 20260507143703 | 68 | 312 | 7.0 | 9.0 | 0.00 | 0.06 | 0.06 | 86 | 1010.9 |
| 20260507143158 | 67 | 319 | 8.0 | 12.0 | 0.00 | 0.06 | 0.06 | 86 | 1010.9 |
| 20260507142641 | 67 | 304 | 8.0 | 12.0 | 0.00 | 0.06 | 0.06 | 86 | 1010.7 |
| 20260507142135 | 67 | 298 | 8.0 | 12.0 | 0.00 | 0.06 | 0.06 | 86 | 1010.8 |
| 20260507141017 | 67 | 311 | 8.0 | 10.0 | 0.00 | 0.06 | 0.06 | 86 | 1011.0 |
| 20260507140514 | 67 | 307 | 8.0 | 10.0 | 0.00 | 0.06 | 0.06 | 86 | 1011.0 |
| 20260507140019 | 67 | 316 | 8.0 | 10.0 | 0.00 | 0.06 | 0.06 | 85 | 1011.1 |
| 20260507135509 | 68 | 303 | 7.0 | 10.0 | 0.00 | 0.06 | 0.06 | 85 | 1011.1 |
| 20260507135006 | 68 | 319 | 7.0 | 11.0 | 0.00 | 0.06 | 0.06 | 85 | 1011.3 |
| 20260507134503 | 68 | 306 | 7.0 | 11.0 | 0.00 | 0.06 | 0.06 | 85 | 1011.3 |
| 20260507134001 | 68 | 290 | 8.0 | 12.0 | 0.00 | 0.06 | 0.06 | 85 | 1011.4 |
| 20260507133450 | 68 | 276 | 9.0 | 12.0 | 0.00 | 0.06 | 0.06 | 84 | 1011.6 |
| 20260507132942 | 68 | 303 | 9.0 | 12.0 | 0.00 | 0.06 | 0.06 | 84 | 1011.6 |
| 20260507132438 | 68 | 311 | 8.0 | 12.0 | 0.00 | 0.06 | 0.06 | 83 | 1011.6 |
| 20260507131926 | 68 | 292 | 8.0 | 10.0 | 0.00 | 0.06 | 0.06 | 83 | 1011.7 |
| 20260507131421 | 68 | 302 | 8.0 | 10.0 | 0.00 | 0.06 | 0.06 | 83 | 1011.8 |
| 20260507130931 | 68 | 290 | 8.0 | 10.0 | 0.00 | 0.06 | 0.06 | 83 | 1011.9 |
| 20260507130432 | 68 | 312 | 8.0 | 10.0 | 0.00 | 0.06 | 0.06 | 83 | 1011.9 |
| 20260507125918 | 68 | 322 | 7.0 | 10.0 | 0.00 | 0.06 | 0.06 | 83 | 1012.1 |
| 20260507125414 | 68 | 303 | 6.0 | 9.0 | 0.00 | 0.06 | 0.06 | 83 | 1012.1 |
| 20260507124911 | 68 | 306 | 6.0 | 9.0 | 0.00 | 0.06 | 0.06 | 83 | 1012.0 |
| 20260507124403 | 68 | 294 | 6.0 | 9.0 | 0.00 | 0.06 | 0.06 | 83 | 1012.0 |
| 20260507123911 | 68 | 302 | 6.0 | 9.0 | 0.00 | 0.06 | 0.06 | 83 | 1012.1 |
| 20260507120834 | 67 | 317 | 5.0 | 8.0 | 0.00 | 0.06 | 0.06 | 82 | 1012.6 |
| 20260507120341 | 67 | 306 | 4.0 | 7.0 | 0.00 | 0.06 | 0.06 | 83 | 1012.7 |
| 20260507115829 | 67 | 301 | 3.0 | 6.0 | 0.00 | 0.06 | 0.06 | 83 | 1012.6 |
| 20260507115337 | 67 | 315 | 3.0 | 4.0 | 0.00 | 0.06 | 0.06 | 83 | 1012.6 |
| 20260507114822 | 67 | 315 | 3.0 | 4.0 | 0.00 | 0.06 | 0.06 | 83 | 1012.5 |
| 20260507114315 | 67 | 319 | 3.0 | 4.0 | 0.00 | 0.06 | 0.06 | 82 | 1012.6 |
| 20260507113806 | 66 | 321 | 3.0 | 4.0 | 0.00 | 0.06 | 0.06 | 82 | 1012.6 |
| 20260507112619 | 66 | 320 | 3.0 | 5.0 | 0.00 | 0.06 | 0.06 | 82 | 1012.7 |
| 20260507112105 | 66 | 317 | 4.0 | 7.0 | 0.00 | 0.06 | 0.06 | 83 | 1012.8 |
| 20260507110950 | 66 | 311 | 5.0 | 7.0 | 0.00 | 0.06 | 0.06 | 84 | 1012.9 |
| 20260507110447 | 66 | 319 | 5.0 | 7.0 | 0.00 | 0.06 | 0.06 | 84 | 1013.0 |
| 20260507105933 | 66 | 321 | 5.0 | 7.0 | 0.00 | 0.06 | 0.06 | 84 | 1013.0 |
| 20260507105421 | 66 | 322 | 4.0 | 7.0 | 0.00 | 0.06 | 0.06 | 85 | 1013.1 |
| 20260507104915 | 66 | 317 | 3.0 | 5.0 | 0.00 | 0.06 | 0.06 | 85 | 1013.2 |
| 20260507104404 | 66 | 326 | 4.0 | 5.0 | 0.00 | 0.06 | 0.06 | 85 | 1013.3 |
| 20260507103912 | 66 | 327 | 3.0 | 5.0 | 0.00 | 0.06 | 0.06 | 85 | 1013.2 |
| 20260507102756 | 66 | 327 | 3.0 | 4.0 | 0.00 | 0.06 | 0.06 | 84 | 1013.4 |
| 20260507102256 | 66 | 327 | 2.0 | 4.0 | 0.00 | 0.06 | 0.06 | 84 | 1013.3 |
| 20260507101744 | 66 | 25 | 1.0 | 3.0 | 0.00 | 0.06 | 0.06 | 85 | 1013.4 |
| 20260507101241 | 66 | 25 | 2.0 | 3.0 | 0.00 | 0.06 | 0.06 | 84 | 1013.5 |
| 20260507100743 | 66 | 24 | 2.0 | 3.0 | 0.00 | 0.06 | 0.06 | 84 | 1013.7 |
| 20260507100244 | 67 | 71 | 1.0 | 3.0 | 0.00 | 0.06 | 0.06 | 83 | 1013.8 |
| 20260507095744 | 67 | 71 | 1.0 | 3.0 | 0.00 | 0.06 | 0.06 | 83 | 1013.6 |
| 20260507095243 | 67 | 71 | 2.0 | 3.0 | 0.00 | 0.06 | 0.06 | 84 | 1013.4 |
| 20260507094126 | 67 | 96 | 1.0 | 3.0 | 0.00 | 0.06 | 0.06 | 84 | 1013.5 |
| 20260507093634 | 66 | 96 | 1.0 | 6.0 | 0.00 | 0.06 | 0.06 | 83 | 1013.4 |
| 20260507093123 | 66 | 96 | 1.0 | 6.0 | 0.00 | 0.06 | 0.06 | 83 | 1013.5 |
| 20260507092628 | 66 | 98 | 2.0 | 6.0 | 0.00 | 0.06 | 0.06 | 83 | 1013.4 |
| 20260507092113 | 66 | 98 | 3.0 | 6.0 | 0.00 | 0.06 | 0.06 | 83 | 1013.5 |
| 20260507091608 | 66 | 90 | 2.0 | 5.0 | 0.00 | 0.06 | 0.06 | 82 | 1013.5 |
| 20260507091112 | 67 | 81 | 1.0 | 3.0 | 0.00 | 0.06 | 0.06 | 83 | 1013.5 |
| 20260507090602 | 67 | 61 | 1.0 | 2.0 | 0.00 | 0.06 | 0.06 | 84 | 1013.7 |
| 20260507090043 | 67 | 57 | 1.0 | 2.0 | 0.00 | 0.06 | 0.06 | 84 | 1013.6 |
| 20260507085549 | 67 | 56 | 1.0 | 2.0 | 0.00 | 0.06 | 0.06 | 85 | 1013.3 |
| 20260507083745 | 65 | 313 | 0.0 | 2.0 | 0.00 | 0.06 | 0.06 | 86 | 1013.4 |
| 20260507083242 | 64 | 313 | 0.0 | 2.0 | 0.00 | 0.06 | 0.06 | 87 | 1013.5 |
| 20260507082139 | 64 | 313 | 1.0 | 2.0 | 0.00 | 0.06 | 0.06 | 87 | 1013.4 |
| 20260507081622 | 64 | 313 | 0.0 | 3.0 | 0.00 | 0.06 | 0.06 | 87 | 1013.5 |
| 20260507081112 | 64 | 306 | 1.0 | 3.0 | 0.00 | 0.06 | 0.06 | 88 | 1013.6 |
| 20260507080606 | 64 | 306 | 2.0 | 4.0 | 0.00 | 0.06 | 0.06 | 88 | 1013.7 |
| 20260507080056 | 64 | 306 | 3.0 | 4.0 | 0.00 | 0.06 | 0.06 | 88 | 1013.6 |
| 20260507075559 | 63 | 300 | 3.0 | 4.0 | 0.00 | 0.06 | 0.06 | 89 | 1013.6 |
| 20260507075101 | 63 | 306 | 2.0 | 4.0 | 0.00 | 0.06 | 0.06 | 89 | 1013.8 |
| 20260507074556 | 63 | 294 | 2.0 | 3.0 | 0.00 | 0.06 | 0.06 | 90 | 1013.7 |
| 20260507074039 | 63 | 338 | 2.0 | 3.0 | 0.00 | 0.06 | 0.06 | 90 | 1013.6 |
| 20260507073534 | 63 | 338 | 2.0 | 3.0 | 0.00 | 0.06 | 0.06 | 90 | 1013.5 |
| 20260507073023 | 63 | 338 | 1.0 | 3.0 | 0.00 | 0.06 | 0.06 | 91 | 1013.5 |
| 20260507072507 | 63 | 338 | 0.0 | 2.0 | 0.00 | 0.06 | 0.06 | 91 | 1013.7 |
| 20260507071333 | 63 | 338 | 0.0 | 1.0 | 0.00 | 0.06 | 0.06 | 92 | 1013.6 |
| 20260507070818 | 62 | 338 | 0.0 | 1.0 | 0.00 | 0.06 | 0.06 | 92 | 1013.7 |
| 20260507070324 | 62 | 338 | 0.0 | 0.0 | 0.00 | 0.06 | 0.06 | 92 | 1013.7 |
| 20260507065818 | 62 | 338 | 0.0 | 0.0 | 0.00 | 0.06 | 0.06 | 92 | 1013.7 |
| 20260507065308 | 62 | 338 | 1.0 | 3.0 | 0.00 | 0.06 | 0.06 | 92 | 1013.7 |
| 20260507064756 | 62 | 338 | 2.0 | 4.0 | 0.00 | 0.06 | 0.06 | 92 | 1013.7 |
| 20260507064257 | 62 | 338 | 2.0 | 4.0 | 0.00 | 0.06 | 0.06 | 92 | 1013.6 |
| 20260507063739 | 62 | 338 | 3.0 | 7.0 | 0.00 | 0.06 | 0.06 | 92 | 1013.6 |
| 20260507063221 | 62 | 338 | 4.0 | 7.0 | 0.00 | 0.06 | 0.06 | 92 | 1013.6 |
| 20260507062721 | 62 | 350 | 5.0 | 8.0 | 0.00 | 0.06 | 0.06 | 92 | 1013.5 |
| 20260507061556 | 62 | 5 | 6.0 | 9.0 | 0.00 | 0.06 | 0.06 | 92 | 1013.4 |
| 20260507061036 | 62 | 355 | 6.0 | 9.0 | 0.00 | 0.06 | 0.06 | 92 | 1013.4 |
| 20260507060538 | 62 | 9 | 7.0 | 9.0 | 0.00 | 0.06 | 0.06 | 92 | 1013.4 |
| 20260507060026 | 62 | 22 | 7.0 | 8.0 | 0.00 | 0.06 | 0.06 | 92 | 1013.4 |
| 20260507055532 | 62 | 12 | 7.0 | 8.0 | 0.00 | 0.06 | 0.06 | 92 | 1013.3 |
| 20260507055037 | 63 | 9 | 6.0 | 8.0 | 0.00 | 0.06 | 0.06 | 91 | 1013.4 |
| 20260507054538 | 63 | 5 | 5.0 | 7.0 | 0.00 | 0.06 | 0.06 | 91 | 1013.4 |
| 20260507053422 | 63 | 323 | 7.0 | 10.0 | 0.00 | 0.06 | 0.06 | 92 | 1013.3 |
| 20260507052924 | 63 | 327 | 8.0 | 10.0 | 0.00 | 0.06 | 0.06 | 92 | 1013.3 |
| 20260507052415 | 63 | 328 | 9.0 | 10.0 | 0.00 | 0.06 | 0.06 | 92 | 1013.3 |
| 20260507051914 | 63 | 328 | 8.0 | 10.0 | 0.00 | 0.06 | 0.06 | 93 | 1013.2 |
| 20260507051406 | 62 | 333 | 6.0 | 9.0 | 0.00 | 0.06 | 0.06 | 93 | 1013.1 |
| 20260507050859 | 62 | 342 | 3.0 | 8.0 | 0.00 | 0.06 | 0.06 | 93 | 1013.1 |
| 20260507050345 | 61 | 302 | 1.0 | 3.0 | 0.00 | 0.06 | 0.06 | 93 | 1013.1 |
| 20260507045206 | 61 | 216 | 2.0 | 3.0 | 0.00 | 0.06 | 0.06 | 92 | 1013.0 |
| 20260507044656 | 61 | 213 | 1.0 | 3.0 | 0.00 | 0.06 | 0.06 | 92 | 1013.0 |
| 20260507044151 | 61 | 213 | 1.0 | 3.0 | 0.00 | 0.06 | 0.06 | 92 | 1012.8 |
| 20260507043648 | 61 | 213 | 2.0 | 3.0 | 0.00 | 0.06 | 0.06 | 92 | 1012.7 |
| 20260507043148 | 61 | 213 | 2.0 | 3.0 | 0.00 | 0.06 | 0.06 | 92 | 1012.7 |
| 20260507042641 | 61 | 209 | 1.0 | 3.0 | 0.00 | 0.06 | 0.06 | 92 | 1012.6 |
| 20260507042129 | 61 | 205 | 1.0 | 3.0 | 0.00 | 0.06 | 0.06 | 92 | 1012.6 |
| 20260507041628 | 61 | 205 | 1.0 | 2.0 | 0.00 | 0.06 | 0.06 | 91 | 1012.8 |
| 20260507041130 | 61 | 203 | 1.0 | 2.0 | 0.00 | 0.06 | 0.06 | 91 | 1012.7 |
| 20260507040634 | 61 | 199 | 1.0 | 2.0 | 0.00 | 0.06 | 0.06 | 91 | 1012.8 |
| 20260507035510 | 62 | 173 | 0.0 | 2.0 | 0.00 | 0.06 | 0.06 | 91 | 1012.7 |
| 20260507035003 | 61 | 173 | 1.0 | 3.0 | 0.00 | 0.06 | 0.06 | 91 | 1012.9 |
| 20260507034446 | 61 | 173 | 1.0 | 3.0 | 0.00 | 0.06 | 0.06 | 91 | 1012.8 |
| 20260507033938 | 62 | 173 | 1.0 | 4.0 | 0.00 | 0.06 | 0.06 | 91 | 1012.7 |
| 20260507033437 | 62 | 165 | 1.0 | 4.0 | 0.00 | 0.06 | 0.06 | 91 | 1012.7 |
| 20260507032940 | 62 | 167 | 1.0 | 4.0 | 0.00 | 0.06 | 0.06 | 91 | 1012.8 |
| 20260507031836 | 62 | 165 | 1.0 | 3.0 | 0.00 | 0.06 | 0.06 | 90 | 1013.0 |
| 20260507030706 | 62 | 192 | 0.0 | 10.0 | 0.00 | 0.06 | 0.06 | 90 | 1013.1 |
| 20260507030159 | 62 | 178 | 1.0 | 10.0 | 0.00 | 0.06 | 0.06 | 89 | 1013.0 |
| 20260507025659 | 63 | 152 | 3.0 | 11.0 | 0.00 | 0.06 | 0.06 | 90 | 1013.0 |
| 20260507025143 | 63 | 185 | 4.0 | 11.0 | 0.00 | 0.06 | 0.06 | 90 | 1012.7 |
| 20260507024631 | 63 | 130 | 4.0 | 13.0 | 0.00 | 0.06 | 0.06 | 89 | 1012.7 |
| 20260507022845 | 63 | 136 | 8.0 | 13.0 | 0.00 | 0.06 | 0.06 | 89 | 1012.5 |
| 20260507022351 | 63 | 94 | 8.0 | 13.0 | 0.00 | 0.06 | 0.06 | 89 | 1012.4 |
| 20260507021859 | 63 | 127 | 6.0 | 13.0 | 0.00 | 0.05 | 0.06 | 89 | 1012.5 |
| 20260507021342 | 62 | 135 | 2.0 | 10.0 | 0.00 | 0.05 | 0.05 | 88 | 1012.6 |
| 20260507020205 | 63 | 61 | 4.0 | 9.0 | 0.00 | 0.05 | 0.05 | 88 | 1012.3 |
| 20260507015655 | 62 | 111 | 3.0 | 9.0 | 0.00 | 0.05 | 0.05 | 88 | 1012.6 |
| 20260507015152 | 62 | 130 | 4.0 | 10.0 | 0.00 | 0.05 | 0.05 | 88 | 1012.7 |
| 20260507014658 | 62 | 92 | 3.0 | 10.0 | 0.00 | 0.05 | 0.05 | 88 | 1012.6 |
| 20260507014139 | 62 | 159 | 4.0 | 11.0 | 0.00 | 0.05 | 0.05 | 88 | 1012.7 |
| 20260507013630 | 62 | 108 | 4.0 | 11.0 | 0.00 | 0.05 | 0.05 | 88 | 1012.6 |
| 20260507013137 | 62 | 145 | 5.0 | 11.0 | 0.00 | 0.05 | 0.05 | 88 | 1012.7 |
| 20260507012637 | 62 | 132 | 5.0 | 11.0 | 0.00 | 0.05 | 0.05 | 88 | 1012.9 |
| 20260507010348 | 61 | 158 | 2.0 | 12.0 | 0.00 | 0.04 | 0.04 | 87 | 1013.3 |
| 20260507005849 | 62 | 133 | 5.0 | 12.0 | 0.00 | 0.04 | 0.04 | 87 | 1013.3 |
| 20260507005330 | 61 | 124 | 6.0 | 12.0 | 0.00 | 0.04 | 0.04 | 87 | 1013.4 |
| 20260507004811 | 61 | 115 | 6.0 | 11.0 | 0.00 | 0.04 | 0.04 | 87 | 1013.4 |
| 20260507004304 | 61 | 128 | 5.0 | 11.0 | 0.00 | 0.04 | 0.04 | 87 | 1013.3 |
| 20260507003806 | 61 | 148 | 4.0 | 10.0 | 0.00 | 0.04 | 0.04 | 87 | 1013.3 |
| 20260507003310 | 61 | 133 | 4.0 | 10.0 | 0.00 | 0.04 | 0.04 | 87 | 1013.4 |
| 20260507002815 | 61 | 123 | 3.0 | 8.0 | 0.00 | 0.04 | 0.04 | 87 | 1013.5 |
| 20260507002312 | 62 | 82 | 3.0 | 8.0 | 0.03 | 0.04 | 0.04 | 87 | 1013.5 |
| 20260507001808 | 62 | 130 | 3.0 | 8.0 | 0.05 | 0.04 | 0.04 | 87 | 1013.5 |
| 20260507000630 | 62 | 118 | 3.0 | 8.0 | 0.00 | 0.03 | 0.03 | 86 | 1013.4 |
| 20260507000130 | 62 | 142 | 3.0 | 8.0 | 0.00 | 0.03 | 0.03 | 86 | 1013.5 |
| 20260506235624 | 61 | 118 | 3.0 | 8.0 | 0.00 | 0.03 | 0.03 | 85 | 1013.6 |
| 20260506235107 | 61 | 113 | 3.0 | 8.0 | 0.00 | 0.03 | 0.03 | 85 | 1013.7 |
| 20260506234601 | 61 | 144 | 2.0 | 7.0 | 0.03 | 0.03 | 0.03 | 84 | 1013.8 |
| 20260506234054 | 61 | 92 | 2.0 | 7.0 | 0.05 | 0.03 | 0.03 | 84 | 1013.9 |
| 20260506233537 | 61 | 128 | 2.0 | 6.0 | 0.06 | 0.03 | 0.03 | 84 | 1014.0 |
| 20260506232418 | 63 | 121 | 1.0 | 6.0 | 0.05 | 0.01 | 0.01 | 84 | 1014.1 |
| 20260506231256 | 63 | 140 | 0.0 | 0.0 | 0.00 | 0.00 | 0.00 | 83 | 1014.1 |
| 20260506230131 | 64 | 140 | 4.0 | 9.0 | 0.00 | 0.00 | 0.00 | 83 | 1014.2 |
| 20260506225620 | 64 | 121 | 3.0 | 8.0 | 0.00 | 0.00 | 0.00 | 82 | 1014.1 |
| 20260506225124 | 64 | 127 | 3.0 | 8.0 | 0.00 | 0.00 | 0.00 | 82 | 1014.3 |
| 20260506224633 | 64 | 140 | 3.0 | 8.0 | 0.00 | 0.00 | 0.00 | 82 | 1014.3 |